This is the latest recevied weather packets stored in our database for station/object VK3CG. If no packets are shown the sender has not sent any weather packets the latest 10 day(s).
| Time | Temp. | Humidity | Pressure | Rain* | Wind** | Luminosity | Snow |
|---|---|---|---|---|---|---|---|
| 1777497338 | 12.22° C | 57% | 1039.4 hPa | 0 mm | - | 9 W/m² | - |
| 1777496438 | 12.22° C | 56% | 1039.5 hPa | 0 mm | - | 0 W/m² | - |
| 1777495540 | 12.78° C | 56% | 1039.3 hPa | 0 mm | - | 0 W/m² | - |
| 1777494634 | 12.78° C | 57% | 1039.1 hPa | 0 mm | - | 0 W/m² | - |
| 1777493731 | 12.22° C | 58% | 1039.1 hPa | 0 mm | - | 0 W/m² | - |
| 1777492833 | 11.67° C | 62% | 1039 hPa | 0 mm | - | 0 W/m² | - |
| 1777491922 | 10° C | 70% | 1038.9 hPa | 0 mm | - | 0 W/m² | - |
| 1777491033 | 7.22° C | 67% | 1038.9 hPa | 0 mm | - | 0 W/m² | - |
| 1777490120 | 6.11° C | 66% | 1038.8 hPa | 0 mm | - | 0 W/m² | - |
| 1777489221 | 5.56° C | 65% | 1038.7 hPa | 0 mm | - | 0 W/m² | - |
| 1777488317 | 5° C | 65% | 1038.5 hPa | 0 mm | - | 0 W/m² | - |
| 1777487416 | 5° C | 64% | 1038.5 hPa | 0 mm | - | 0 W/m² | - |
| 1777486576 | 5° C | 64% | 1038.4 hPa | 0 mm | - | 0 W/m² | - |
| 1777485634 | 5.56° C | 64% | 1038.5 hPa | 0 mm | - | 0 W/m² | - |
| 1777484714 | 5.56° C | 64% | 1038.5 hPa | 0 mm | - | 0 W/m² | - |
| 1777483810 | 5.56° C | 64% | 1038.5 hPa | 0 mm | - | 0 W/m² | - |
| 1777482910 | 5.56° C | 64% | 1038.3 hPa | 0 mm | - | 0 W/m² | - |
| 1777482008 | 6.11° C | 64% | 1038.4 hPa | 0 mm | - | 0 W/m² | - |
| 1777481113 | 6.11° C | 64% | 1038.5 hPa | 0 mm | - | 0 W/m² | - |
| 1777480204 | 6.67° C | 64% | 1038.5 hPa | 0 mm | - | 0 W/m² | - |
| 1777479302 | 6.67° C | 64% | 1038.5 hPa | 0 mm | - | 0 W/m² | - |
| 1777478467 | 6.67° C | 63% | 1038.5 hPa | 0 mm | - | 0 W/m² | - |
| 1777477561 | 6.67° C | 64% | 1038.6 hPa | 0 mm | - | 0 W/m² | - |
| 1777476658 | 6.67° C | 63% | 1038.7 hPa | 0 mm | - | 0 W/m² | - |
| 1777475761 | 6.67° C | 63% | 1038.8 hPa | 0 mm | - | 0 W/m² | - |
* Rain latest hour (hover to see other rain measurements)
** Current wind speed in m/s (hover to see current wind gust speed)